Time,TemperatureF,DewpointF,PressureIn,WindDirection,WindDirectionDegrees,WindSpeedMPH,WindSpeedGustMPH,Humidity,HourlyPrecipIn,Conditions,Clouds,dailyrainin,SoftwareType,DateUTC
2013-06-23 00:01:00,76.0,67.0,29.99,North,-999,-999.0,-999.0,74,-99.99,,,-99.99,,2013-06-23 05:01:00,
2013-06-23 00:11:00,76.0,67.0,29.98,North,-999,-999.0,-999.0,74,-99.99,,,-99.99,,2013-06-23 05:11:00,
2013-06-23 00:32:00,76.0,67.0,29.99,North,-999,-999.0,-999.0,75,-99.99,,,-99.99,,2013-06-23 05:32:00,
2013-06-23 00:41:00,75.0,67.0,29.99,North,-999,-999.0,-999.0,75,-99.99,,,-99.99,,2013-06-23 05:41:00,
2013-06-23 01:02:00,75.0,67.0,29.99,North,-999,-999.0,-999.0,77,-99.99,,,-99.99,,2013-06-23 06:02:00,
2013-06-23 01:12:00,74.0,67.0,29.98,North,-999,-999.0,-999.0,78,-99.99,,,-99.99,,2013-06-23 06:12:00,
2013-06-23 01:33:00,74.0,67.0,29.99,North,-999,-999.0,-999.0,80,-99.99,,,-99.99,,2013-06-23 06:33:00,
2013-06-23 01:43:00,73.0,67.0,29.99,North,-999,-999.0,-999.0,81,-99.99,,,-99.99,,2013-06-23 06:43:00,
2013-06-23 02:02:00,73.0,67.0,29.98,North,-999,-999.0,-999.0,82,-99.99,,,-99.99,,2013-06-23 07:02:00,
2013-06-23 02:12:00,73.0,67.0,29.98,North,-999,-999.0,-999.0,82,-99.99,,,-99.99,,2013-06-23 07:12:00,
2013-06-23 02:22:00,73.0,67.0,29.98,North,-999,-999.0,-999.0,82,-99.99,,,-99.99,,2013-06-23 07:22:00,
2013-06-23 02:34:00,73.0,67.0,29.98,North,-999,-999.0,-999.0,82,-99.99,,,-99.99,,2013-06-23 07:34:00,
2013-06-23 02:43:00,72.0,67.0,29.98,North,-999,-999.0,-999.0,82,-99.99,,,-99.99,,2013-06-23 07:43:00,
2013-06-23 03:02:00,72.0,67.0,29.97,North,-999,-999.0,-999.0,83,-99.99,,,-99.99,,2013-06-23 08:02:00,
2013-06-23 03:12:00,72.0,67.0,29.97,North,-999,-999.0,-999.0,83,-99.99,,,-99.99,,2013-06-23 08:12:00,
2013-06-23 03:22:00,72.0,67.0,29.97,North,-999,-999.0,-999.0,83,-99.99,,,-99.99,,2013-06-23 08:22:00,
2013-06-23 03:34:00,72.0,67.0,29.97,North,-999,-999.0,-999.0,82,-99.99,,,-99.99,,2013-06-23 08:34:00,
2013-06-23 03:43:00,72.0,67.0,29.96,North,-999,-999.0,-999.0,83,-99.99,,,-99.99,,2013-06-23 08:43:00,
2013-06-23 04:02:00,72.0,67.0,29.94,North,-999,-999.0,-999.0,83,-99.99,,,-99.99,,2013-06-23 09:02:00,
2013-06-23 04:12:00,72.0,67.0,29.94,North,-999,-999.0,-999.0,83,-99.99,,,-99.99,,2013-06-23 09:12:00,
2013-06-23 04:34:00,72.0,66.0,29.94,North,-999,-999.0,-999.0,82,-99.99,,,-99.99,,2013-06-23 09:34:00,
2013-06-23 04:43:00,72.0,66.0,29.94,North,-999,-999.0,-999.0,82,-99.99,,,-99.99,,2013-06-23 09:43:00,
2013-06-23 05:02:00,72.0,67.0,29.94,North,-999,-999.0,-999.0,82,-99.99,,,-99.99,,2013-06-23 10:02:00,
2013-06-23 05:11:00,72.0,67.0,29.95,North,-999,-999.0,-999.0,83,-99.99,,,-99.99,,2013-06-23 10:11:00,
2013-06-23 05:34:00,72.0,66.0,29.96,North,-999,-999.0,-999.0,83,-99.99,,,-99.99,,2013-06-23 10:34:00,
2013-06-23 05:43:00,71.0,66.0,29.96,North,-999,-999.0,-999.0,84,-99.99,,,-99.99,,2013-06-23 10:43:00,
2013-06-23 06:01:00,71.0,66.0,29.96,North,-999,-999.0,-999.0,85,-99.99,,,-99.99,,2013-06-23 11:01:00,
2013-06-23 06:11:00,71.0,66.0,29.96,North,-999,-999.0,-999.0,86,-99.99,,,-99.99,,2013-06-23 11:11:00,
2013-06-23 06:22:00,71.0,66.0,29.96,North,-999,-999.0,-999.0,86,-99.99,,,-99.99,,2013-06-23 11:22:00,
2013-06-23 06:33:00,71.0,66.0,29.96,North,-999,-999.0,-999.0,86,-99.99,,,-99.99,,2013-06-23 11:33:00,
2013-06-23 06:43:00,71.0,66.0,29.96,North,-999,-999.0,-999.0,85,-99.99,,,-99.99,,2013-06-23 11:43:00,
2013-06-23 07:01:00,72.0,67.0,29.96,North,-999,-999.0,-999.0,84,-99.99,,,-99.99,,2013-06-23 12:01:00,
2013-06-23 07:12:00,72.0,67.0,29.96,North,-999,-999.0,-999.0,84,-99.99,,,-99.99,,2013-06-23 12:12:00,
2013-06-23 07:33:00,73.0,67.0,29.96,North,-999,-999.0,-999.0,83,-99.99,,,-99.99,,2013-06-23 12:33:00,
2013-06-23 07:42:00,73.0,68.0,29.96,North,-999,-999.0,-999.0,83,-99.99,,,-99.99,,2013-06-23 12:42:00,
2013-06-23 08:02:00,74.0,68.0,29.96,North,-999,-999.0,-999.0,81,-99.99,,,-99.99,,2013-06-23 13:02:00,
2013-06-23 08:11:00,75.0,68.0,29.96,North,-999,-999.0,-999.0,80,-99.99,,,-99.99,,2013-06-23 13:11:00,
2013-06-23 08:34:00,76.0,69.0,29.97,North,-999,-999.0,-999.0,79,-99.99,,,-99.99,,2013-06-23 13:34:00,
2013-06-23 08:43:00,77.0,69.0,29.96,North,-999,-999.0,-999.0,78,-99.99,,,-99.99,,2013-06-23 13:43:00,
2013-06-23 09:04:00,78.0,69.0,29.96,North,-999,-999.0,-999.0,75,-99.99,,,-99.99,,2013-06-23 14:04:00,
2013-06-23 09:11:00,78.0,70.0,29.96,North,-999,-999.0,-999.0,75,-99.99,,,-99.99,,2013-06-23 14:11:00,
2013-06-23 09:22:00,78.0,70.0,29.96,North,-999,-999.0,-999.0,75,-99.99,,,-99.99,,2013-06-23 14:22:00,
2013-06-23 09:34:00,80.0,70.0,29.96,North,-999,-999.0,-999.0,72,-99.99,,,-99.99,,2013-06-23 14:34:00,
2013-06-23 09:44:00,80.0,70.0,29.96,North,-999,-999.0,-999.0,70,-99.99,,,-99.99,,2013-06-23 14:44:00,
2013-06-23 10:05:00,82.0,70.0,29.96,North,-999,-999.0,-999.0,68,-99.99,,,-99.99,,2013-06-23 15:05:00,
2013-06-23 10:11:00,82.0,70.0,29.96,North,-999,-999.0,-999.0,67,-99.99,,,-99.99,,2013-06-23 15:11:00,
2013-06-23 10:23:00,82.0,70.0,29.96,North,-999,-999.0,-999.0,67,-99.99,,,-99.99,,2013-06-23 15:23:00,
2013-06-23 10:35:00,83.0,69.0,29.96,North,-999,-999.0,-999.0,63,-99.99,,,-99.99,,2013-06-23 15:35:00,
2013-06-23 10:43:00,83.0,70.0,29.97,North,-999,-999.0,-999.0,64,-99.99,,,-99.99,,2013-06-23 15:43:00,
2013-06-23 11:06:00,84.0,70.0,29.97,North,-999,-999.0,-999.0,62,-99.99,,,-99.99,,2013-06-23 16:06:00,
2013-06-23 11:12:00,85.0,70.0,29.97,North,-999,-999.0,-999.0,62,-99.99,,,-99.99,,2013-06-23 16:12:00,
2013-06-23 11:22:00,85.0,70.0,29.97,North,-999,-999.0,-999.0,62,-99.99,,,-99.99,,2013-06-23 16:22:00,
2013-06-23 11:36:00,85.0,70.0,29.97,North,-999,-999.0,-999.0,60,-99.99,,,-99.99,,2013-06-23 16:36:00,
2013-06-23 11:43:00,85.0,72.0,29.97,North,-999,-999.0,-999.0,64,-99.99,,,-99.99,,2013-06-23 16:43:00,
2013-06-23 11:53:00,85.0,71.0,29.98,North,-999,-999.0,-999.0,62,-99.99,,,-99.99,,2013-06-23 16:53:00,
2013-06-23 12:12:00,85.0,70.0,29.98,North,-999,-999.0,-999.0,62,-99.99,,,-99.99,,2013-06-23 17:12:00,
2013-06-23 12:33:00,86.0,71.0,29.98,North,-999,-999.0,-999.0,61,-99.99,,,-99.99,,2013-06-23 17:33:00,
2013-06-23 12:43:00,87.0,70.0,29.98,North,-999,-999.0,-999.0,59,-99.99,,,-99.99,,2013-06-23 17:43:00,
2013-06-23 12:53:00,87.0,69.0,29.99,North,-999,-999.0,-999.0,56,-99.99,,,-99.99,,2013-06-23 17:53:00,
2013-06-23 13:01:00,87.0,69.0,29.99,North,-999,-999.0,-999.0,56,-99.99,,,-99.99,,2013-06-23 18:01:00,
2013-06-23 13:12:00,86.0,71.0,29.99,North,-999,-999.0,-999.0,60,-99.99,,,-99.99,,2013-06-23 18:12:00,
2013-06-23 13:22:00,86.0,71.0,29.99,North,-999,-999.0,-999.0,60,-99.99,,,-99.99,,2013-06-23 18:22:00,
2013-06-23 13:34:00,86.0,69.0,29.99,North,-999,-999.0,-999.0,58,-99.99,,,-99.99,,2013-06-23 18:34:00,
2013-06-23 13:42:00,88.0,71.0,29.98,North,-999,-999.0,-999.0,58,-99.99,,,-99.99,,2013-06-23 18:42:00,
2013-06-23 14:01:00,88.0,71.0,29.98,North,-999,-999.0,-999.0,57,-99.99,,,-99.99,,2013-06-23 19:01:00,
2013-06-23 14:11:00,89.0,72.0,29.97,North,-999,-999.0,-999.0,57,-99.99,,,-99.99,,2013-06-23 19:11:00,
2013-06-23 14:21:00,89.0,72.0,29.97,North,-999,-999.0,-999.0,57,-99.99,,,-99.99,,2013-06-23 19:21:00,
2013-06-23 14:32:00,89.0,71.0,29.98,North,-999,-999.0,-999.0,57,-99.99,,,-99.99,,2013-06-23 19:32:00,
2013-06-23 14:43:00,88.0,70.0,29.97,North,-999,-999.0,-999.0,56,-99.99,,,-99.99,,2013-06-23 19:43:00,
2013-06-23 15:02:00,89.0,70.0,29.97,North,-999,-999.0,-999.0,54,-99.99,,,-99.99,,2013-06-23 20:02:00,
2013-06-23 15:12:00,90.0,71.0,29.96,North,-999,-999.0,-999.0,54,-99.99,,,-99.99,,2013-06-23 20:12:00,
2013-06-23 15:24:00,90.0,71.0,29.96,North,-999,-999.0,-999.0,54,-99.99,,,-99.99,,2013-06-23 20:24:00,
2013-06-23 15:33:00,90.0,70.0,29.96,North,-999,-999.0,-999.0,53,-99.99,,,-99.99,,2013-06-23 20:33:00,
2013-06-23 15:42:00,89.0,70.0,29.95,North,-999,-999.0,-999.0,53,-99.99,,,-99.99,,2013-06-23 20:42:00,
2013-06-23 15:53:00,89.0,70.0,29.94,North,-999,-999.0,-999.0,54,-99.99,,,-99.99,,2013-06-23 20:53:00,
2013-06-23 16:01:00,89.0,70.0,29.94,North,-999,-999.0,-999.0,54,-99.99,,,-99.99,,2013-06-23 21:01:00,
2013-06-23 16:11:00,90.0,70.0,29.94,North,-999,-999.0,-999.0,53,-99.99,,,-99.99,,2013-06-23 21:11:00,
2013-06-23 16:22:00,90.0,70.0,29.94,North,-999,-999.0,-999.0,53,-99.99,,,-99.99,,2013-06-23 21:22:00,
2013-06-23 16:34:00,89.0,69.0,29.93,North,-999,-999.0,-999.0,52,-99.99,,,-99.99,,2013-06-23 21:34:00,
2013-06-23 16:44:00,89.0,68.0,29.93,North,-999,-999.0,-999.0,49,-99.99,,,-99.99,,2013-06-23 21:44:00,
2013-06-23 17:01:00,90.0,69.0,29.92,North,-999,-999.0,-999.0,51,-99.99,,,-99.99,,2013-06-23 22:01:00,
2013-06-23 17:12:00,89.0,68.0,29.92,North,-999,-999.0,-999.0,49,-99.99,,,-99.99,,2013-06-23 22:12:00,
2013-06-23 17:32:00,89.0,68.0,29.91,North,-999,-999.0,-999.0,51,-99.99,,,-99.99,,2013-06-23 22:32:00,
2013-06-23 17:43:00,89.0,68.0,29.91,North,-999,-999.0,-999.0,49,-99.99,,,-99.99,,2013-06-23 22:43:00,
2013-06-23 18:01:00,89.0,67.0,29.90,North,-999,-999.0,-999.0,48,-99.99,,,-99.99,,2013-06-23 23:01:00,
2013-06-23 18:11:00,89.0,67.0,29.90,North,-999,-999.0,-999.0,49,-99.99,,,-99.99,,2013-06-23 23:11:00,
2013-06-23 18:33:00,88.0,68.0,29.89,North,-999,-999.0,-999.0,51,-99.99,,,-99.99,,2013-06-23 23:33:00,
2013-06-23 18:44:00,88.0,68.0,29.89,North,-999,-999.0,-999.0,51,-99.99,,,-99.99,,2013-06-23 23:44:00,
2013-06-23 18:52:00,88.0,66.0,29.90,North,-999,-999.0,-999.0,49,-99.99,,,-99.99,,2013-06-23 23:52:00,
2013-06-23 19:01:00,88.0,66.0,29.90,North,-999,-999.0,-999.0,49,-99.99,,,-99.99,,2013-06-24 00:01:00,
2013-06-23 19:11:00,87.0,66.0,29.89,North,-999,-999.0,-999.0,49,-99.99,,,-99.99,,2013-06-24 00:11:00,
2013-06-23 19:33:00,87.0,66.0,29.90,North,-999,-999.0,-999.0,50,-99.99,,,-99.99,,2013-06-24 00:33:00,
2013-06-23 19:42:00,87.0,67.0,29.90,North,-999,-999.0,-999.0,53,-99.99,,,-99.99,,2013-06-24 00:42:00,
2013-06-23 20:02:00,86.0,68.0,29.91,North,-999,-999.0,-999.0,55,-99.99,,,-99.99,,2013-06-24 01:02:00,
2013-06-23 20:11:00,85.0,68.0,29.91,North,-999,-999.0,-999.0,56,-99.99,,,-99.99,,2013-06-24 01:11:00,
2013-06-23 20:32:00,84.0,67.0,29.91,North,-999,-999.0,-999.0,57,-99.99,,,-99.99,,2013-06-24 01:32:00,
2013-06-23 20:42:00,84.0,67.0,29.92,North,-999,-999.0,-999.0,58,-99.99,,,-99.99,,2013-06-24 01:42:00,
2013-06-23 20:53:00,82.0,67.0,29.92,North,-999,-999.0,-999.0,60,-99.99,,,-99.99,,2013-06-24 01:53:00,
2013-06-23 21:02:00,82.0,67.0,29.92,North,-999,-999.0,-999.0,60,-99.99,,,-99.99,,2013-06-24 02:02:00,
2013-06-23 21:11:00,82.0,67.0,29.93,North,-999,-999.0,-999.0,61,-99.99,,,-99.99,,2013-06-24 02:11:00,
2013-06-23 21:33:00,81.0,67.0,29.93,North,-999,-999.0,-999.0,63,-99.99,,,-99.99,,2013-06-24 02:33:00,
2013-06-23 21:42:00,80.0,67.0,29.94,North,-999,-999.0,-999.0,64,-99.99,,,-99.99,,2013-06-24 02:42:00,
2013-06-23 22:01:00,80.0,67.0,29.94,North,-999,-999.0,-999.0,66,-99.99,,,-99.99,,2013-06-24 03:01:00,
2013-06-23 22:11:00,80.0,67.0,29.95,North,-999,-999.0,-999.0,66,-99.99,,,-99.99,,2013-06-24 03:11:00,
2013-06-23 22:33:00,79.0,67.0,29.96,North,-999,-999.0,-999.0,67,-99.99,,,-99.99,,2013-06-24 03:33:00,
2013-06-23 22:43:00,79.0,67.0,29.97,North,-999,-999.0,-999.0,68,-99.99,,,-99.99,,2013-06-24 03:43:00,
2013-06-23 23:02:00,79.0,68.0,29.97,North,-999,-999.0,-999.0,69,-99.99,,,-99.99,,2013-06-24 04:02:00,
2013-06-23 23:12:00,78.0,67.0,29.98,North,-999,-999.0,-999.0,69,-99.99,,,-99.99,,2013-06-24 04:12:00,
2013-06-23 23:22:00,78.0,67.0,29.98,North,-999,-999.0,-999.0,69,-99.99,,,-99.99,,2013-06-24 04:22:00,
2013-06-23 23:33:00,78.0,67.0,29.98,North,-999,-999.0,-999.0,69,-99.99,,,-99.99,,2013-06-24 04:33:00,
2013-06-23 23:43:00,78.0,67.0,29.98,North,-999,-999.0,-999.0,69,-99.99,,,-99.99,,2013-06-24 04:43:00,
2013-06-23 23:52:00,78.0,67.0,29.98,North,-999,-999.0,-999.0,69,-99.99,,,-99.99,,2013-06-24 04:52:00,